Time,TemperatureF,DewpointF,PressureIn,WindDirection,WindDirectionDegrees,WindSpeedMPH,WindSpeedGustMPH,Humidity,HourlyPrecipIn,Conditions,Clouds,dailyrainin,SoftwareType,DateUTC
2013-04-04 00:00:00,41.7,12.6,30.33,North,360,3.0,3.0,30,0.00,,---,0.00,VWS V14.01,2013-04-04 04:00:00,
2013-04-04 00:05:00,41.4,12.3,30.33,NW,309,0.0,6.0,30,0.00,,---,0.00,VWS V14.01,2013-04-04 04:05:00,
2013-04-04 00:10:00,41.2,11.4,30.33,NW,309,0.0,6.0,29,0.00,,---,0.00,VWS V14.01,2013-04-04 04:10:00,
2013-04-04 00:15:00,41.0,12.7,30.33,NW,309,1.0,6.0,31,0.00,,---,0.00,VWS V14.01,2013-04-04 04:15:00,
2013-04-04 00:20:00,40.9,11.9,30.33,NW,309,1.0,6.0,30,0.00,,---,0.00,VWS V14.01,2013-04-04 04:20:00,
2013-04-04 00:25:00,40.7,14.5,30.33,NW,309,0.0,6.0,34,0.00,,---,0.00,VWS V14.01,2013-04-04 04:25:00,
2013-04-04 00:30:00,40.5,13.7,30.33,NW,309,2.0,3.0,33,0.00,,---,0.00,VWS V14.01,2013-04-04 04:30:00,
2013-04-04 00:35:00,40.3,13.5,30.33,NW,309,0.0,3.0,33,0.00,,---,0.00,VWS V14.01,2013-04-04 04:35:00,
2013-04-04 00:40:00,40.2,12.0,30.33,NW,309,0.0,4.0,31,0.00,,---,0.00,VWS V14.01,2013-04-04 04:40:00,
2013-04-04 00:45:00,40.0,12.5,30.33,NW,309,1.0,4.0,32,0.00,,---,0.00,VWS V14.01,2013-04-04 04:45:00,
2013-04-04 00:50:00,39.8,11.6,30.33,NW,309,0.0,4.0,31,0.00,,---,0.00,VWS V14.01,2013-04-04 04:50:00,
2013-04-04 00:55:00,39.6,13.6,30.33,NW,309,2.0,4.0,34,0.00,,---,0.00,VWS V14.01,2013-04-04 04:55:00,
2013-04-04 01:00:00,39.3,13.9,30.34,NW,309,0.0,0.0,35,0.00,,---,0.00,VWS V14.01,2013-04-04 05:00:00,
2013-04-04 01:05:00,39.0,14.3,30.34,NW,309,1.0,2.0,36,0.00,,---,0.00,VWS V14.01,2013-04-04 05:05:00,
2013-04-04 01:10:00,38.7,14.7,30.33,NW,309,0.0,2.0,37,0.00,,---,0.00,VWS V14.01,2013-04-04 05:10:00,
2013-04-04 01:15:00,38.4,15.6,30.33,NW,309,0.0,2.0,39,0.00,,---,0.00,VWS V14.01,2013-04-04 05:15:00,
2013-04-04 01:20:00,38.2,16.0,30.33,NW,309,0.0,2.0,40,0.00,,---,0.00,VWS V14.01,2013-04-04 05:20:00,
2013-04-04 01:25:00,37.8,14.5,30.33,NW,309,0.0,2.0,38,0.00,,---,0.00,VWS V14.01,2013-04-04 05:25:00,
2013-04-04 01:30:00,37.7,13.2,30.33,NW,309,0.0,0.0,36,0.00,,---,0.00,VWS V14.01,2013-04-04 05:30:00,
2013-04-04 01:35:00,37.6,15.5,30.33,NW,309,0.0,0.0,40,0.00,,---,0.00,VWS V14.01,2013-04-04 05:35:00,
2013-04-04 01:40:00,37.4,15.3,30.34,NW,309,0.0,0.0,40,0.00,,---,0.00,VWS V14.01,2013-04-04 05:40:00,
2013-04-04 01:45:00,37.4,14.7,30.33,NW,309,0.0,0.0,39,0.00,,---,0.00,VWS V14.01,2013-04-04 05:45:00,
2013-04-04 01:50:00,37.1,15.6,30.34,NW,309,0.0,0.0,41,0.00,,---,0.00,VWS V14.01,2013-04-04 05:50:00,
2013-04-04 01:55:00,36.8,18.0,30.33,NW,309,2.0,2.0,46,0.00,,---,0.00,VWS V14.01,2013-04-04 05:55:00,
2013-04-04 02:00:00,36.4,14.4,30.34,ENE,69,6.0,6.0,40,0.00,,---,0.00,VWS V14.01,2013-04-04 06:00:00,
2013-04-04 02:05:00,36.9,14.9,30.33,ENE,69,3.0,7.0,40,0.00,,---,0.00,VWS V14.01,2013-04-04 06:05:00,
2013-04-04 02:10:00,36.9,18.1,30.33,ENE,66,2.0,7.0,46,0.00,,---,0.00,VWS V14.01,2013-04-04 06:10:00,
2013-04-04 02:15:00,36.7,15.8,30.33,ENE,66,0.0,7.0,42,0.00,,---,0.00,VWS V14.01,2013-04-04 06:15:00,
2013-04-04 02:20:00,36.4,18.1,30.33,ENE,66,3.0,7.0,47,0.00,,---,0.00,VWS V14.01,2013-04-04 06:20:00,
2013-04-04 02:25:00,35.9,17.1,30.33,ENE,66,2.0,7.0,46,0.00,,---,0.00,VWS V14.01,2013-04-04 06:25:00,
2013-04-04 02:30:00,35.4,17.7,30.33,ENE,62,1.0,2.0,48,0.00,,---,0.00,VWS V14.01,2013-04-04 06:30:00,
2013-04-04 02:35:00,35.0,16.3,30.33,ENE,62,1.0,4.0,46,0.00,,---,0.00,VWS V14.01,2013-04-04 06:35:00,
2013-04-04 02:40:00,34.7,16.5,30.33,ENE,62,2.0,4.0,47,0.00,,---,0.00,VWS V14.01,2013-04-04 06:40:00,
2013-04-04 02:45:00,34.6,16.0,30.33,ENE,62,2.0,4.0,46,0.00,,---,0.00,VWS V14.01,2013-04-04 06:45:00,
2013-04-04 02:50:00,34.5,16.9,30.33,ENE,62,0.0,4.0,48,0.00,,---,0.00,VWS V14.01,2013-04-04 06:50:00,
2013-04-04 02:55:00,34.5,15.9,30.33,ENE,62,2.0,4.0,46,0.00,,---,0.00,VWS V14.01,2013-04-04 06:55:00,
2013-04-04 03:00:00,34.4,16.3,30.33,ENE,62,1.0,2.0,47,0.00,,---,0.00,VWS V14.01,2013-04-04 07:00:00,
2013-04-04 03:05:00,34.4,16.3,30.33,ENE,62,1.0,3.0,47,0.00,,---,0.00,VWS V14.01,2013-04-04 07:05:00,
2013-04-04 03:10:00,34.3,16.2,30.33,ENE,62,0.0,3.0,47,0.00,,---,0.00,VWS V14.01,2013-04-04 07:10:00,
2013-04-04 03:15:00,34.1,15.5,30.34,ENE,62,0.0,3.0,46,0.00,,---,0.00,VWS V14.01,2013-04-04 07:15:00,
2013-04-04 03:20:00,34.0,15.9,30.34,ENE,62,0.0,3.0,47,0.00,,---,0.00,VWS V14.01,2013-04-04 07:20:00,
2013-04-04 03:25:00,33.9,15.8,30.34,ENE,62,0.0,3.0,47,0.00,,---,0.00,VWS V14.01,2013-04-04 07:25:00,
2013-04-04 03:30:00,33.9,15.8,30.34,ENE,62,0.0,0.0,47,0.00,,---,0.00,VWS V14.01,2013-04-04 07:30:00,
2013-04-04 03:35:00,33.9,15.8,30.35,ENE,62,0.0,0.0,47,0.00,,---,0.00,VWS V14.01,2013-04-04 07:35:00,
2013-04-04 03:40:00,34.0,15.9,30.35,ENE,62,0.0,0.0,47,0.00,,---,0.00,VWS V14.01,2013-04-04 07:40:00,
2013-04-04 03:45:00,34.0,16.4,30.35,ENE,62,0.0,2.0,48,0.00,,---,0.00,VWS V14.01,2013-04-04 07:45:00,
2013-04-04 03:50:00,33.9,17.2,30.34,ENE,62,3.0,3.0,50,0.00,,---,0.00,VWS V14.01,2013-04-04 07:50:00,
2013-04-04 03:55:00,33.8,18.5,30.35,ENE,62,0.0,4.0,53,0.00,,---,0.00,VWS V14.01,2013-04-04 07:55:00,
2013-04-04 04:00:00,33.4,19.0,30.35,ENE,62,0.0,0.0,55,0.00,,---,0.00,VWS V14.01,2013-04-04 08:00:00,
2013-04-04 04:05:00,32.9,19.8,30.34,ENE,62,0.0,3.0,58,0.00,,---,0.00,VWS V14.01,2013-04-04 08:05:00,
2013-04-04 04:10:00,32.4,18.5,30.35,ENE,63,2.0,3.0,56,0.00,,---,0.00,VWS V14.01,2013-04-04 08:10:00,
2013-04-04 04:15:00,31.9,19.2,30.35,ENE,63,0.0,3.0,59,0.00,,---,0.00,VWS V14.01,2013-04-04 08:15:00,
2013-04-04 04:20:00,31.6,19.3,30.35,ENE,63,0.0,4.0,60,0.00,,---,0.00,VWS V14.01,2013-04-04 08:20:00,
2013-04-04 04:25:00,31.4,19.5,30.35,ENE,63,1.0,4.0,61,0.00,,---,0.00,VWS V14.01,2013-04-04 08:25:00,
2013-04-04 04:30:00,31.2,19.7,30.35,ENE,63,1.0,2.0,62,0.00,,---,0.00,VWS V14.01,2013-04-04 08:30:00,
2013-04-04 04:35:00,31.1,20.0,30.35,ENE,63,0.0,3.0,63,0.00,,---,0.00,VWS V14.01,2013-04-04 08:35:00,
2013-04-04 04:40:00,31.1,19.6,30.35,ENE,63,0.0,3.0,62,0.00,,---,0.00,VWS V14.01,2013-04-04 08:40:00,
2013-04-04 04:45:00,31.1,18.9,30.35,ENE,63,0.0,3.0,60,0.00,,---,0.00,VWS V14.01,2013-04-04 08:45:00,
2013-04-04 04:50:00,31.3,18.2,30.36,ENE,63,0.0,3.0,58,0.00,,---,0.00,VWS V14.01,2013-04-04 08:50:00,
2013-04-04 04:55:00,31.5,19.2,30.36,ENE,63,0.0,3.0,60,0.00,,---,0.00,VWS V14.01,2013-04-04 08:55:00,
2013-04-04 05:00:00,31.7,19.0,30.36,ENE,63,0.0,0.0,59,0.00,,---,0.00,VWS V14.01,2013-04-04 09:00:00,
2013-04-04 05:05:00,31.8,18.7,30.36,ENE,63,0.0,0.0,58,0.00,,---,0.00,VWS V14.01,2013-04-04 09:05:00,
2013-04-04 05:10:00,31.9,18.8,30.36,ENE,63,0.0,0.0,58,0.00,,---,0.00,VWS V14.01,2013-04-04 09:10:00,
2013-04-04 05:15:00,31.9,19.2,30.36,ENE,63,0.0,0.0,59,0.00,,---,0.00,VWS V14.01,2013-04-04 09:15:00,
2013-04-04 05:20:00,31.9,19.6,30.35,ENE,63,0.0,0.0,60,0.00,,---,0.00,VWS V14.01,2013-04-04 09:20:00,
2013-04-04 05:25:00,31.7,20.6,30.35,ENE,63,0.0,3.0,63,0.00,,---,0.00,VWS V14.01,2013-04-04 09:25:00,
2013-04-04 05:30:00,31.5,19.6,30.35,ENE,63,0.0,1.0,61,0.00,,---,0.00,VWS V14.01,2013-04-04 09:30:00,
2013-04-04 05:35:00,31.3,20.2,30.35,ENE,63,0.0,1.0,63,0.00,,---,0.00,VWS V14.01,2013-04-04 09:35:00,
2013-04-04 05:40:00,31.1,20.7,30.35,ENE,63,0.0,1.0,65,0.00,,---,0.00,VWS V14.01,2013-04-04 09:40:00,
2013-04-04 05:45:00,30.8,20.1,30.35,ENE,63,0.0,1.0,64,0.00,,---,0.00,VWS V14.01,2013-04-04 09:45:00,
2013-04-04 05:50:00,30.6,20.2,30.35,ENE,63,0.0,1.0,65,0.00,,---,0.00,VWS V14.01,2013-04-04 09:50:00,
2013-04-04 05:55:00,30.5,20.1,30.35,ENE,63,0.0,1.0,65,0.00,,---,0.00,VWS V14.01,2013-04-04 09:55:00,
2013-04-04 06:00:00,30.3,19.6,30.35,ENE,63,0.0,0.0,64,0.00,,---,0.00,VWS V14.01,2013-04-04 10:00:00,
2013-04-04 06:05:00,30.2,20.6,30.35,ENE,63,0.0,2.0,67,0.00,,---,0.00,VWS V14.01,2013-04-04 10:05:00,
2013-04-04 06:10:00,30.2,20.9,30.35,ENE,63,0.0,2.0,68,0.00,,---,0.00,VWS V14.01,2013-04-04 10:10:00,
2013-04-04 06:15:00,30.1,19.0,30.35,ENE,63,0.0,3.0,63,0.00,,---,0.00,VWS V14.01,2013-04-04 10:15:00,
2013-04-04 06:20:00,30.2,19.9,30.35,ENE,63,0.0,3.0,65,0.00,,---,0.00,VWS V14.01,2013-04-04 10:20:00,
2013-04-04 06:25:00,30.2,20.2,30.35,ENE,63,0.0,3.0,66,0.00,,---,0.00,VWS V14.01,2013-04-04 10:25:00,
2013-04-04 06:30:00,30.2,20.2,30.36,ENE,63,0.0,0.0,66,0.00,,---,0.00,VWS V14.01,2013-04-04 10:30:00,
2013-04-04 06:35:00,30.2,20.2,30.36,ENE,63,0.0,0.0,66,0.00,,---,0.00,VWS V14.01,2013-04-04 10:35:00,
2013-04-04 06:40:00,30.1,19.8,30.36,ENE,63,0.0,1.0,65,0.00,,---,0.00,VWS V14.01,2013-04-04 10:40:00,
2013-04-04 06:45:00,30.1,19.8,30.37,ENE,63,0.0,1.0,65,0.00,,---,0.00,VWS V14.01,2013-04-04 10:45:00,
2013-04-04 06:50:00,30.1,19.8,30.37,ENE,63,0.0,1.0,65,0.00,,---,0.00,VWS V14.01,2013-04-04 10:50:00,
2013-04-04 06:55:00,30.2,19.9,30.37,ENE,63,1.0,2.0,65,0.00,,---,0.00,VWS V14.01,2013-04-04 10:55:00,
2013-04-04 07:00:00,30.2,19.5,30.37,ENE,63,0.0,0.0,64,0.00,,---,0.00,VWS V14.01,2013-04-04 11:00:00,
2013-04-04 07:05:00,30.2,19.1,30.37,ENE,63,0.0,0.0,63,0.00,,---,0.00,VWS V14.01,2013-04-04 11:05:00,
2013-04-04 07:10:00,30.2,19.5,30.37,ENE,63,0.0,1.0,64,0.00,,---,0.00,VWS V14.01,2013-04-04 11:10:00,
2013-04-04 07:15:00,30.2,19.5,30.37,ENE,63,0.0,1.0,64,0.00,,---,0.00,VWS V14.01,2013-04-04 11:15:00,
2013-04-04 07:20:00,30.1,20.5,30.37,ENE,63,0.0,1.0,67,0.00,,---,0.00,VWS V14.01,2013-04-04 11:20:00,
2013-04-04 07:25:00,30.0,20.4,30.37,ENE,63,0.0,1.0,67,0.00,,---,0.00,VWS V14.01,2013-04-04 11:25:00,
2013-04-04 07:30:00,29.9,19.9,30.37,ENE,63,0.0,0.0,66,0.00,,---,0.00,VWS V14.01,2013-04-04 11:30:00,
2013-04-04 07:35:00,30.0,20.4,30.38,ENE,63,0.0,0.0,67,0.00,,---,0.00,VWS V14.01,2013-04-04 11:35:00,
2013-04-04 07:40:00,30.1,20.1,30.38,ENE,63,0.0,0.0,66,0.00,,---,0.00,VWS V14.01,2013-04-04 11:40:00,
2013-04-04 07:45:00,30.2,19.9,30.39,ENE,63,0.0,0.0,65,0.00,,---,0.00,VWS V14.01,2013-04-04 11:45:00,
2013-04-04 07:50:00,30.4,20.4,30.39,ENE,63,0.0,0.0,66,0.00,,---,0.00,VWS V14.01,2013-04-04 11:50:00,
2013-04-04 07:55:00,30.5,20.5,30.39,ENE,63,0.0,0.0,66,0.00,,---,0.00,VWS V14.01,2013-04-04 11:55:00,
2013-04-04 08:00:00,30.7,20.3,30.39,ENE,63,0.0,0.0,65,0.00,,---,0.00,VWS V14.01,2013-04-04 12:00:00,
2013-04-04 08:05:00,31.0,21.3,30.39,ENE,63,0.0,0.0,67,0.00,,---,0.00,VWS V14.01,2013-04-04 12:05:00,
2013-04-04 08:10:00,31.2,22.9,30.40,ENE,63,0.0,0.0,71,0.00,,---,0.00,VWS V14.01,2013-04-04 12:10:00,
2013-04-04 08:15:00,31.5,23.9,30.40,ENE,63,0.0,2.0,73,0.00,,---,0.00,VWS V14.01,2013-04-04 12:15:00,
2013-04-04 08:20:00,31.8,23.5,30.40,ENE,63,0.0,2.0,71,0.00,,---,0.00,VWS V14.01,2013-04-04 12:20:00,
2013-04-04 08:25:00,32.1,23.1,30.40,ENE,63,0.0,2.0,69,0.00,,---,0.00,VWS V14.01,2013-04-04 12:25:00,
2013-04-04 08:30:00,32.4,20.5,30.40,ENE,63,2.0,3.0,61,0.00,,---,0.00,VWS V14.01,2013-04-04 12:30:00,
2013-04-04 08:35:00,32.8,21.2,30.40,ENE,63,2.0,4.0,62,0.00,,---,0.00,VWS V14.01,2013-04-04 12:35:00,
2013-04-04 08:40:00,33.2,20.4,30.39,ENE,63,0.0,4.0,59,0.00,,---,0.00,VWS V14.01,2013-04-04 12:40:00,
2013-04-04 08:45:00,33.5,20.3,30.39,ENE,63,1.0,4.0,58,0.00,,---,0.00,VWS V14.01,2013-04-04 12:45:00,
2013-04-04 08:50:00,33.8,19.8,30.39,ENE,64,2.0,5.0,56,0.00,,---,0.00,VWS V14.01,2013-04-04 12:50:00,
2013-04-04 08:55:00,34.1,20.1,30.39,ENE,61,4.0,6.0,56,0.00,,---,0.00,VWS V14.01,2013-04-04 12:55:00,
2013-04-04 09:00:00,34.2,19.7,30.39,ENE,64,1.0,2.0,55,0.00,,---,0.00,VWS V14.01,2013-04-04 13:00:00,
2013-04-04 09:05:00,34.4,22.4,30.39,ENE,64,3.0,4.0,61,0.00,,---,0.00,VWS V14.01,2013-04-04 13:05:00,
2013-04-04 09:10:00,34.5,19.6,30.39,ENE,69,4.0,8.0,54,0.00,,---,0.00,VWS V14.01,2013-04-04 13:10:00,
2013-04-04 09:15:00,34.6,19.7,30.38,ENE,65,2.0,8.0,54,0.00,,---,0.00,VWS V14.01,2013-04-04 13:15:00,
2013-04-04 09:20:00,34.7,20.2,30.38,ENE,78,7.0,8.0,55,0.00,,---,0.00,VWS V14.01,2013-04-04 13:20:00,
2013-04-04 09:25:00,35.0,19.6,30.37,East,98,4.0,10.0,53,0.00,,---,0.00,VWS V14.01,2013-04-04 13:25:00,
2013-04-04 09:30:00,35.1,19.3,30.37,ENE,76,2.0,4.0,52,0.00,,---,0.00,VWS V14.01,2013-04-04 13:30:00,
2013-04-04 09:35:00,35.3,19.0,30.37,East,95,0.0,7.0,51,0.00,,---,0.00,VWS V14.01,2013-04-04 13:35:00,
2013-04-04 09:40:00,35.6,19.7,30.37,East,88,0.0,7.0,52,0.00,,---,0.00,VWS V14.01,2013-04-04 13:40:00,
2013-04-04 09:45:00,35.9,19.5,30.37,East,84,0.0,7.0,51,0.00,,---,0.00,VWS V14.01,2013-04-04 13:45:00,
2013-04-04 09:50:00,36.0,18.2,30.37,ENE,76,0.0,7.0,48,0.00,,---,0.00,VWS V14.01,2013-04-04 13:50:00,
2013-04-04 09:55:00,36.0,19.2,30.37,SE,143,0.0,7.0,50,0.00,,---,0.00,VWS V14.01,2013-04-04 13:55:00,
2013-04-04 10:00:00,36.1,18.3,30.36,ENE,73,0.0,0.0,48,0.00,,---,0.00,VWS V14.01,2013-04-04 14:00:00,
2013-04-04 10:05:00,36.2,18.9,30.36,East,80,0.0,0.0,49,0.00,,---,0.00,VWS V14.01,2013-04-04 14:05:00,
2013-04-04 10:10:00,36.3,18.5,30.36,SE,130,0.0,0.0,48,0.00,,---,0.00,VWS V14.01,2013-04-04 14:10:00,
2013-04-04 10:16:00,36.5,20.1,30.36,NE,54,0.0,0.0,51,0.00,,---,0.00,VWS V14.01,2013-04-04 14:16:00,
2013-04-04 10:21:00,37.0,19.1,30.35,East,80,0.0,0.0,48,0.00,,---,0.00,VWS V14.01,2013-04-04 14:21:00,
2013-04-04 10:26:00,37.6,20.2,30.35,ESE,117,0.0,0.0,49,0.00,,---,0.00,VWS V14.01,2013-04-04 14:26:00,
2013-04-04 10:30:00,37.9,19.0,30.35,East,89,0.0,0.0,46,0.00,,---,0.00,VWS V14.01,2013-04-04 14:30:00,
2013-04-04 10:31:00,38.0,19.6,30.35,NE,43,0.0,0.0,47,0.00,,---,0.00,VWS V14.01,2013-04-04 14:31:00,
2013-04-04 10:36:00,38.0,18.6,30.35,ENE,66,0.0,0.0,45,0.00,,---,0.00,VWS V14.01,2013-04-04 14:36:00,
2013-04-04 10:41:00,38.0,18.6,30.35,ENE,76,0.0,0.0,45,0.00,,---,0.00,VWS V14.01,2013-04-04 14:41:00,
2013-04-04 10:46:00,38.2,19.3,30.35,ENE,71,0.0,0.0,46,0.00,,---,0.00,VWS V14.01,2013-04-04 14:46:00,
2013-04-04 10:51:00,38.5,18.5,30.35,ESE,121,0.0,0.0,44,0.00,,---,0.00,VWS V14.01,2013-04-04 14:51:00,
2013-04-04 10:56:00,38.6,19.1,30.35,SE,130,0.0,0.0,45,0.00,,---,0.00,VWS V14.01,2013-04-04 14:56:00,
2013-04-04 11:00:00,38.7,20.2,30.35,SE,144,0.0,0.0,47,0.00,,---,0.00,VWS V14.01,2013-04-04 15:00:00,
2013-04-04 11:01:00,38.8,19.3,30.35,SSE,163,0.0,0.0,45,0.00,,---,0.00,VWS V14.01,2013-04-04 15:01:00,
2013-04-04 11:06:00,39.0,19.5,30.34,SE,127,0.0,0.0,45,0.00,,---,0.00,VWS V14.01,2013-04-04 15:06:00,
2013-04-04 11:11:00,39.2,19.1,30.34,ESE,121,0.0,0.0,44,0.00,,---,0.00,VWS V14.01,2013-04-04 15:11:00,
2013-04-04 11:16:00,39.4,19.8,30.34,ENE,72,0.0,0.0,45,0.00,,---,0.00,VWS V14.01,2013-04-04 15:16:00,
2013-04-04 11:21:00,39.8,19.1,30.34,SSE,152,0.0,0.0,43,0.00,,---,0.00,VWS V14.01,2013-04-04 15:21:00,
2013-04-04 11:26:00,40.1,20.0,30.34,SE,128,0.0,0.0,44,0.00,,---,0.00,VWS V14.01,2013-04-04 15:26:00,
2013-04-04 11:30:00,40.3,19.0,30.34,ESE,120,0.0,0.0,42,0.00,,---,0.00,VWS V14.01,2013-04-04 15:30:00,
2013-04-04 11:35:00,40.3,18.5,30.33,SSE,160,0.0,0.0,41,0.00,,---,0.00,VWS V14.01,2013-04-04 15:35:00,
2013-04-04 11:40:00,40.5,19.8,30.33,ENE,71,0.0,0.0,43,0.00,,---,0.00,VWS V14.01,2013-04-04 15:40:00,
2013-04-04 11:45:00,40.8,20.0,30.32,SSE,157,0.0,0.0,43,0.00,,---,0.00,VWS V14.01,2013-04-04 15:45:00,
2013-04-04 11:50:00,41.0,19.7,30.32,SE,132,0.0,12.0,42,0.00,,---,0.00,VWS V14.01,2013-04-04 15:50:00,
2013-04-04 11:55:00,41.2,20.4,30.31,East,84,1.0,12.0,43,0.00,,---,0.00,VWS V14.01,2013-04-04 15:55:00,
2013-04-04 12:00:00,41.2,19.3,30.31,South,178,0.0,12.0,41,0.00,,---,0.00,VWS V14.01,2013-04-04 16:00:00,
2013-04-04 12:01:00,41.1,18.6,30.31,ESE,115,0.0,6.0,40,0.00,,---,0.00,VWS V14.01,2013-04-04 16:01:00,
2013-04-04 12:06:00,40.9,20.7,30.31,SE,134,2.0,6.0,44,0.00,,---,0.00,VWS V14.01,2013-04-04 16:06:00,
2013-04-04 12:11:00,40.9,19.0,30.31,ENE,67,2.0,6.0,41,0.00,,---,0.00,VWS V14.01,2013-04-04 16:11:00,
2013-04-04 12:16:00,40.9,19.0,30.31,SE,126,2.0,6.0,41,0.00,,---,0.00,VWS V14.01,2013-04-04 16:16:00,
2013-04-04 12:21:00,40.9,19.6,30.30,SE,129,1.0,11.0,42,0.00,,---,0.00,VWS V14.01,2013-04-04 16:21:00,
2013-04-04 12:26:00,41.1,20.3,30.30,ESE,110,2.0,11.0,43,0.00,,---,0.00,VWS V14.01,2013-04-04 16:26:00,
2013-04-04 12:30:00,41.0,19.7,30.30,SE,130,1.0,11.0,42,0.00,,---,0.00,VWS V14.01,2013-04-04 16:30:00,
2013-04-04 12:31:00,41.1,19.8,30.30,ESE,123,5.0,7.0,42,0.00,,---,0.00,VWS V14.01,2013-04-04 16:31:00,
2013-04-04 12:36:00,41.1,19.2,30.29,ESE,117,0.0,7.0,41,0.00,,---,0.00,VWS V14.01,2013-04-04 16:36:00,
2013-04-04 12:41:00,41.2,19.3,30.29,SSE,165,0.0,7.0,41,0.00,,---,0.00,VWS V14.01,2013-04-04 16:41:00,
2013-04-04 12:46:00,41.4,20.0,30.28,SE,128,0.0,7.0,42,0.00,,---,0.00,VWS V14.01,2013-04-04 16:46:00,
2013-04-04 12:51:00,41.5,20.1,30.28,ENE,68,0.0,7.0,42,0.00,,---,0.00,VWS V14.01,2013-04-04 16:51:00,
2013-04-04 12:56:00,41.4,18.9,30.28,SE,136,2.0,7.0,40,0.00,,---,0.00,VWS V14.01,2013-04-04 16:56:00,
2013-04-04 13:00:00,41.5,20.7,30.27,East,80,2.0,7.0,43,0.00,,---,0.00,VWS V14.01,2013-04-04 17:00:00,
2013-04-04 13:01:00,41.4,20.6,30.28,SE,134,2.0,5.0,43,0.00,,---,0.00,VWS V14.01,2013-04-04 17:01:00,
2013-04-04 13:06:00,41.4,20.0,30.28,East,94,2.0,6.0,42,0.00,,---,0.00,VWS V14.01,2013-04-04 17:06:00,
2013-04-04 13:11:00,41.3,20.0,30.27,ESE,117,5.0,6.0,42,0.00,,---,0.00,VWS V14.01,2013-04-04 17:11:00,
2013-04-04 13:16:00,41.4,20.6,30.27,ESE,117,1.0,6.0,43,0.00,,---,0.00,VWS V14.01,2013-04-04 17:16:00,
2013-04-04 13:21:00,41.4,20.6,30.27,ENE,63,5.0,8.0,43,0.00,,---,0.00,VWS V14.01,2013-04-04 17:21:00,
2013-04-04 13:26:00,41.4,19.5,30.26,NE,56,2.0,8.0,41,0.00,,---,0.00,VWS V14.01,2013-04-04 17:26:00,
2013-04-04 13:30:00,41.4,20.0,30.26,ENE,75,4.0,8.0,42,0.00,,---,0.00,VWS V14.01,2013-04-04 17:30:00,
2013-04-04 13:31:00,41.5,20.1,30.26,ENE,75,1.0,4.0,42,0.00,,---,0.00,VWS V14.01,2013-04-04 17:31:00,
2013-04-04 13:36:00,41.4,20.6,30.26,ENE,69,4.0,5.0,43,0.00,,---,0.00,VWS V14.01,2013-04-04 17:36:00,
2013-04-04 13:41:00,41.4,20.0,30.27,ENE,76,3.0,5.0,42,0.00,,---,0.00,VWS V14.01,2013-04-04 17:41:00,
2013-04-04 13:46:00,41.4,19.5,30.27,SE,136,0.0,6.0,41,0.00,,---,0.00,VWS V14.01,2013-04-04 17:46:00,
2013-04-04 13:51:00,41.5,19.6,30.27,East,89,2.0,6.0,41,0.00,,---,0.00,VWS V14.01,2013-04-04 17:51:00,
2013-04-04 13:56:00,41.6,19.7,30.27,East,88,2.0,6.0,41,0.00,,---,0.00,VWS V14.01,2013-04-04 17:56:00,
2013-04-04 14:00:00,41.6,20.2,30.26,ENE,65,5.0,7.0,42,0.00,,---,0.00,VWS V14.01,2013-04-04 18:00:00,
2013-04-04 14:01:00,41.6,20.2,30.26,ENE,64,4.0,5.0,42,0.00,,---,0.00,VWS V14.01,2013-04-04 18:01:00,
2013-04-04 14:06:00,41.6,20.2,30.26,East,89,0.0,5.0,42,0.00,,---,0.00,VWS V14.01,2013-04-04 18:06:00,
2013-04-04 14:11:00,41.5,19.0,30.26,East,89,0.0,5.0,40,0.00,,---,0.00,VWS V14.01,2013-04-04 18:11:00,
2013-04-04 14:16:00,41.5,20.1,30.27,East,89,0.0,5.0,42,0.00,,---,0.00,VWS V14.01,2013-04-04 18:16:00,
2013-04-04 14:22:00,41.6,20.8,30.28,East,89,0.0,5.0,43,0.00,,---,0.00,VWS V14.01,2013-04-04 18:22:00,
2013-04-04 14:27:00,41.6,20.2,30.28,South,178,0.0,5.0,42,0.00,,---,0.00,VWS V14.01,2013-04-04 18:27:00,
2013-04-04 14:30:00,41.7,21.4,30.28,WNW,282,4.0,6.0,44,0.00,,---,0.00,VWS V14.01,2013-04-04 18:30:00,
2013-04-04 14:32:00,41.7,20.9,30.28,WNW,284,2.0,4.0,43,0.00,,---,0.00,VWS V14.01,2013-04-04 18:32:00,
2013-04-04 14:37:00,41.7,20.3,30.28,WNW,284,0.0,5.0,42,0.00,,---,0.00,VWS V14.01,2013-04-04 18:37:00,
2013-04-04 14:42:00,41.6,19.7,30.27,WNW,284,0.0,5.0,41,0.00,,---,0.00,VWS V14.01,2013-04-04 18:42:00,
2013-04-04 14:47:00,41.5,20.7,30.27,WNW,284,0.0,5.0,43,0.00,,---,0.00,VWS V14.01,2013-04-04 18:47:00,
2013-04-04 14:52:00,41.3,21.0,30.26,WNW,284,0.0,5.0,44,0.00,,---,0.00,VWS V14.01,2013-04-04 18:52:00,
2013-04-04 14:57:00,41.1,21.4,30.26,NE,56,3.0,5.0,45,0.00,,---,0.00,VWS V14.01,2013-04-04 18:57:00,
2013-04-04 15:00:00,41.0,21.8,30.26,NE,56,0.0,5.0,46,0.00,,---,0.00,VWS V14.01,2013-04-04 19:00:00,
2013-04-04 15:02:00,41.0,21.8,30.26,NE,56,0.0,3.0,46,0.00,,---,0.00,VWS V14.01,2013-04-04 19:02:00,
2013-04-04 15:07:00,40.8,20.6,30.26,NE,56,0.0,3.0,44,0.00,,---,0.00,VWS V14.01,2013-04-04 19:07:00,
2013-04-04 15:12:00,40.7,21.5,30.26,NE,56,0.0,3.0,46,0.00,,---,0.00,VWS V14.01,2013-04-04 19:12:00,
2013-04-04 15:17:00,40.6,23.0,30.26,SSE,155,4.0,6.0,49,0.00,,---,0.00,VWS V14.01,2013-04-04 19:17:00,
2013-04-04 15:22:00,40.4,24.6,30.25,SSE,149,2.0,6.0,53,0.00,,---,0.00,VWS V14.01,2013-04-04 19:22:00,
2013-04-04 15:27:00,40.0,24.7,30.24,South,169,4.0,6.0,54,0.00,,---,0.00,VWS V14.01,2013-04-04 19:27:00,
2013-04-04 15:30:00,39.9,25.1,30.24,SE,136,4.0,6.0,55,0.00,,---,0.00,VWS V14.01,2013-04-04 19:30:00,
2013-04-04 15:32:00,39.7,27.0,30.24,SSE,167,2.0,4.0,60,0.00,,---,0.00,VWS V14.01,2013-04-04 19:32:00,
2013-04-04 15:37:00,39.0,28.6,30.25,ESE,122,0.0,6.0,66,0.00,,---,0.00,VWS V14.01,2013-04-04 19:37:00,
2013-04-04 15:42:00,38.0,29.8,30.25,South,180,2.0,7.0,72,0.00,,---,0.00,VWS V14.01,2013-04-04 19:42:00,
2013-04-04 15:47:00,37.0,30.1,30.25,South,179,0.0,7.0,76,0.00,,---,0.00,VWS V14.01,2013-04-04 19:47:00,
2013-04-04 15:53:00,36.4,30.2,30.25,SSW,196,0.0,7.0,78,0.00,,---,0.00,VWS V14.01,2013-04-04 19:53:00,
2013-04-04 15:58:00,35.8,30.2,30.25,SSW,196,0.0,7.0,80,0.00,,---,0.00,VWS V14.01,2013-04-04 19:58:00,
2013-04-04 16:00:00,35.7,30.5,30.25,SSW,196,0.0,7.0,81,0.00,,---,0.00,VWS V14.01,2013-04-04 20:00:00,
2013-04-04 16:03:00,35.4,30.8,30.25,SSW,196,0.0,0.0,83,0.00,,---,0.00,VWS V14.01,2013-04-04 20:03:00,
2013-04-04 16:08:00,35.1,30.8,30.25,SSW,194,0.0,3.0,84,0.00,,---,0.00,VWS V14.01,2013-04-04 20:08:00,
2013-04-04 16:13:00,34.8,31.0,30.25,SSW,194,0.0,3.0,86,0.00,,---,0.00,VWS V14.01,2013-04-04 20:13:00,
2013-04-04 16:18:00,34.5,31.0,30.25,SSW,194,0.0,3.0,87,0.00,,---,0.00,VWS V14.01,2013-04-04 20:18:00,
2013-04-04 16:23:00,34.3,31.1,30.24,SSW,194,0.0,3.0,88,0.00,,---,0.00,VWS V14.01,2013-04-04 20:23:00,
2013-04-04 16:28:00,34.1,30.9,30.24,SSW,194,0.0,3.0,88,0.00,,---,0.00,VWS V14.01,2013-04-04 20:28:00,
2013-04-04 16:30:00,34.1,30.9,30.24,SSW,194,0.0,3.0,88,0.00,,---,0.00,VWS V14.01,2013-04-04 20:30:00,
2013-04-04 16:33:00,34.1,31.2,30.23,SSW,194,0.0,0.0,89,0.00,,---,0.00,VWS V14.01,2013-04-04 20:33:00,
2013-04-04 16:38:00,34.0,31.1,30.23,SSW,194,0.0,0.0,89,0.00,,---,0.00,VWS V14.01,2013-04-04 20:38:00,
2013-04-04 16:43:00,33.9,31.3,30.23,SSW,194,0.0,0.0,90,0.00,,---,0.00,VWS V14.01,2013-04-04 20:43:00,
2013-04-04 16:48:00,33.9,31.3,30.23,SSW,194,0.0,0.0,90,0.00,,---,0.00,VWS V14.01,2013-04-04 20:48:00,
2013-04-04 16:53:00,33.8,31.5,30.23,SSW,194,0.0,0.0,91,0.00,,---,0.00,VWS V14.01,2013-04-04 20:53:00,
2013-04-04 16:58:00,33.7,31.4,30.23,SSW,194,0.0,0.0,91,0.00,,---,0.00,VWS V14.01,2013-04-04 20:58:00,
2013-04-04 17:00:00,33.6,31.3,30.23,SSW,194,0.0,0.0,91,0.00,,---,0.00,VWS V14.01,2013-04-04 21:00:00,
2013-04-04 17:03:00,33.6,31.3,30.23,SSW,194,0.0,0.0,91,0.00,,---,0.00,VWS V14.01,2013-04-04 21:03:00,
2013-04-04 17:08:00,33.5,31.2,30.23,SSW,194,0.0,0.0,91,0.00,,---,0.00,VWS V14.01,2013-04-04 21:08:00,
2013-04-04 17:13:00,33.5,31.4,30.23,SSW,194,0.0,0.0,92,0.00,,---,0.00,VWS V14.01,2013-04-04 21:13:00,
2013-04-04 17:18:00,33.5,31.4,30.23,SSW,194,0.0,0.0,92,0.00,,---,0.00,VWS V14.01,2013-04-04 21:18:00,
2013-04-04 17:23:00,33.5,31.4,30.23,SSW,194,0.0,0.0,92,0.00,,---,0.00,VWS V14.01,2013-04-04 21:23:00,
2013-04-04 17:28:00,33.4,31.3,30.22,SSW,194,0.0,0.0,92,0.00,,---,0.00,VWS V14.01,2013-04-04 21:28:00,
2013-04-04 17:30:00,33.4,31.3,30.22,SSW,194,0.0,0.0,92,0.00,,---,0.00,VWS V14.01,2013-04-04 21:30:00,
2013-04-04 17:33:00,33.4,31.3,30.21,SSW,194,0.0,0.0,92,0.00,,---,0.00,VWS V14.01,2013-04-04 21:33:00,
2013-04-04 17:38:00,33.3,31.2,30.20,SSW,194,0.0,0.0,92,0.00,,---,0.00,VWS V14.01,2013-04-04 21:38:00,
2013-04-04 17:43:00,33.2,31.4,30.20,SSW,194,0.0,0.0,93,0.00,,---,0.00,VWS V14.01,2013-04-04 21:43:00,
2013-04-04 17:48:00,33.1,31.3,30.20,SSW,206,0.0,0.0,93,0.00,,---,0.00,VWS V14.01,2013-04-04 21:48:00,
2013-04-04 17:53:00,33.0,31.2,30.19,NW,316,0.0,0.0,93,0.00,,---,0.00,VWS V14.01,2013-04-04 21:53:00,
2013-04-04 17:58:00,32.9,31.4,30.19,NW,321,0.0,0.0,94,0.00,,---,0.00,VWS V14.01,2013-04-04 21:58:00,
2013-04-04 18:00:00,32.9,31.1,30.19,North,355,3.0,5.0,93,0.00,,---,0.00,VWS V14.01,2013-04-04 22:00:00,
2013-04-04 18:03:00,32.9,31.4,30.18,North,355,0.0,4.0,94,0.00,,---,0.00,VWS V14.01,2013-04-04 22:03:00,
2013-04-04 18:08:00,32.8,31.3,30.18,North,355,2.0,5.0,94,0.00,,---,0.00,VWS V14.01,2013-04-04 22:08:00,
2013-04-04 18:13:00,32.8,31.3,30.17,North,355,2.0,5.0,94,0.00,,---,0.00,VWS V14.01,2013-04-04 22:13:00,
2013-04-04 18:18:00,32.8,31.3,30.17,North,355,0.0,5.0,94,0.00,,---,0.00,VWS V14.01,2013-04-04 22:18:00,
2013-04-04 18:23:00,32.8,31.3,30.16,North,355,1.0,5.0,94,0.00,,---,0.00,VWS V14.01,2013-04-04 22:23:00,
2013-04-04 18:28:00,32.8,31.3,30.16,North,355,2.0,5.0,94,0.00,,---,0.00,VWS V14.01,2013-04-04 22:28:00,
2013-04-04 18:30:00,32.8,31.3,30.16,North,355,2.0,6.0,94,0.00,,---,0.00,VWS V14.01,2013-04-04 22:30:00,
2013-04-04 18:33:00,32.8,31.3,30.16,North,351,2.0,6.0,94,0.00,,---,0.00,VWS V14.01,2013-04-04 22:33:00,
2013-04-04 18:38:00,32.8,31.3,30.16,NNW,341,1.0,6.0,94,0.00,,---,0.00,VWS V14.01,2013-04-04 22:38:00,
2013-04-04 18:43:00,32.8,31.3,30.17,NNW,338,3.0,6.0,94,0.00,,---,0.00,VWS V14.01,2013-04-04 22:43:00,
2013-04-04 18:48:00,32.8,31.5,30.16,NNW,338,2.0,6.0,95,0.00,,---,0.00,VWS V14.01,2013-04-04 22:48:00,
2013-04-04 18:53:00,32.9,31.4,30.15,NNW,338,0.0,6.0,94,0.00,,---,0.00,VWS V14.01,2013-04-04 22:53:00,
2013-04-04 18:58:00,32.9,31.4,30.15,NNW,342,0.0,6.0,94,0.00,,---,0.00,VWS V14.01,2013-04-04 22:58:00,
2013-04-04 19:00:00,32.9,31.4,30.15,NNW,342,0.0,6.0,94,0.00,,---,0.00,VWS V14.01,2013-04-04 23:00:00,
2013-04-04 19:03:00,33.0,31.5,30.15,NNW,344,2.0,5.0,94,0.00,,---,0.00,VWS V14.01,2013-04-04 23:03:00,
2013-04-04 19:08:00,33.0,31.7,30.15,NNW,344,3.0,5.0,95,0.00,,---,0.00,VWS V14.01,2013-04-04 23:08:00,
2013-04-04 19:13:00,33.1,31.8,30.16,North,349,3.0,5.0,95,0.00,,---,0.00,VWS V14.01,2013-04-04 23:13:00,
2013-04-04 19:18:00,33.0,31.7,30.15,NNW,348,2.0,5.0,95,0.01,,---,0.01,VWS V14.01,2013-04-04 23:18:00,
2013-04-04 19:23:00,33.0,31.7,30.15,North,5,3.0,5.0,95,0.02,,---,0.02,VWS V14.01,2013-04-04 23:23:00,
2013-04-04 19:28:00,33.0,31.7,30.15,North,5,0.0,5.0,95,0.02,,---,0.02,VWS V14.01,2013-04-04 23:28:00,
2013-04-04 19:30:00,33.0,31.7,30.15,North,5,0.0,5.0,95,0.02,,---,0.02,VWS V14.01,2013-04-04 23:30:00,
2013-04-04 19:33:00,33.1,31.8,30.15,North,5,0.0,2.0,95,0.02,,---,0.02,VWS V14.01,2013-04-04 23:33:00,
2013-04-04 19:38:00,33.1,31.8,30.14,NNE,15,2.0,5.0,95,0.03,,---,0.03,VWS V14.01,2013-04-04 23:38:00,
2013-04-04 19:43:00,33.1,31.8,30.13,North,355,4.0,7.0,95,0.04,,---,0.04,VWS V14.01,2013-04-04 23:43:00,
2013-04-04 19:48:00,33.1,31.8,30.13,NNW,339,2.0,7.0,95,0.04,,---,0.04,VWS V14.01,2013-04-04 23:48:00,
2013-04-04 19:53:00,33.1,31.8,30.13,NNW,339,2.0,7.0,95,0.05,,---,0.05,VWS V14.01,2013-04-04 23:53:00,
2013-04-04 19:58:00,33.1,31.8,30.12,NNW,338,3.0,7.0,95,0.06,,---,0.06,VWS V14.01,2013-04-04 23:58:00,
2013-04-04 20:00:00,33.1,31.8,30.12,NNW,339,2.0,7.0,95,0.06,,---,0.06,VWS V14.01,2013-04-05 00:00:00,
2013-04-04 20:03:00,33.1,31.8,30.13,NNW,343,1.0,4.0,95,0.06,,---,0.06,VWS V14.01,2013-04-05 00:03:00,
2013-04-04 20:08:00,33.1,31.8,30.13,NNW,344,2.0,5.0,95,0.06,,---,0.06,VWS V14.01,2013-04-05 00:08:00,
2013-04-04 20:13:00,33.1,31.8,30.12,NNW,344,0.0,5.0,95,0.06,,---,0.06,VWS V14.01,2013-04-05 00:13:00,
2013-04-04 20:18:00,33.1,31.8,30.12,NNW,344,4.0,5.0,95,0.07,,---,0.07,VWS V14.01,2013-04-05 00:18:00,
2013-04-04 20:23:00,33.1,31.8,30.12,NNW,344,3.0,5.0,95,0.08,,---,0.08,VWS V14.01,2013-04-05 00:23:00,
2013-04-04 20:28:00,33.1,31.8,30.12,NNW,344,2.0,5.0,95,0.09,,---,0.09,VWS V14.01,2013-04-05 00:28:00,
2013-04-04 20:30:00,33.1,31.8,30.12,NNW,344,2.0,5.0,95,0.10,,---,0.10,VWS V14.01,2013-04-05 00:30:00,
2013-04-04 20:33:00,33.1,31.8,30.12,NNW,344,3.0,4.0,95,0.08,,---,0.10,VWS V14.01,2013-04-05 00:33:00,
2013-04-04 20:38:00,33.1,31.8,30.10,NNW,344,1.0,4.0,95,0.09,,---,0.11,VWS V14.01,2013-04-05 00:38:00,
2013-04-04 20:43:00,33.1,31.8,30.10,NNW,344,0.0,4.0,95,0.10,,---,0.12,VWS V14.01,2013-04-05 00:43:00,
2013-04-04 20:48:00,33.1,31.8,30.10,NNW,344,2.0,4.0,95,0.10,,---,0.12,VWS V14.01,2013-04-05 00:48:00,
2013-04-04 20:53:00,33.0,31.7,30.10,NNW,344,0.0,4.0,95,0.11,,---,0.13,VWS V14.01,2013-04-05 00:53:00,
2013-04-04 20:58:00,33.0,31.7,30.10,NNW,344,0.0,4.0,95,0.12,,---,0.14,VWS V14.01,2013-04-05 00:58:00,
2013-04-04 21:00:00,33.0,31.7,30.10,NNW,344,0.0,4.0,95,0.12,,---,0.14,VWS V14.01,2013-04-05 01:00:00,
2013-04-04 21:03:00,33.0,31.7,30.11,NNW,344,0.0,0.0,95,0.10,,---,0.16,VWS V14.01,2013-04-05 01:03:00,
2013-04-04 21:08:00,33.1,31.8,30.10,NNW,344,0.0,3.0,95,0.10,,---,0.16,VWS V14.01,2013-04-05 01:08:00,
2013-04-04 21:13:00,33.1,31.8,30.10,NNW,344,0.0,3.0,95,0.12,,---,0.18,VWS V14.01,2013-04-05 01:13:00,
2013-04-04 21:18:00,33.1,31.8,30.09,NNW,344,1.0,3.0,95,0.12,,---,0.18,VWS V14.01,2013-04-05 01:18:00,
2013-04-04 21:23:00,33.1,32.0,30.10,NNW,344,0.0,-999.0,95,-99.99,,,0.19,weatherlink.com 1.10,2013-04-05 01:23:00,
2013-04-04 21:28:00,33.2,31.9,30.10,North,350,1.0,3.0,95,0.14,,---,0.20,VWS V14.01,2013-04-05 01:28:00,
2013-04-04 21:30:00,33.2,31.9,30.10,North,350,2.0,3.0,95,0.14,,---,0.20,VWS V14.01,2013-04-05 01:30:00,
2013-04-04 21:33:00,33.3,32.0,30.10,NNE,16,0.0,4.0,95,0.10,,---,0.20,VWS V14.01,2013-04-05 01:33:00,
2013-04-04 21:38:00,33.3,32.0,30.10,NNE,16,1.0,4.0,95,0.10,,---,0.20,VWS V14.01,2013-04-05 01:38:00,
2013-04-04 21:43:00,33.2,31.9,30.10,NNE,16,2.0,4.0,95,0.11,,---,0.21,VWS V14.01,2013-04-05 01:43:00,
2013-04-04 21:48:00,33.2,31.9,30.09,NNE,16,2.0,4.0,95,0.12,,---,0.22,VWS V14.01,2013-04-05 01:48:00,
2013-04-04 21:53:00,33.3,32.3,30.09,NNE,16,0.0,4.0,96,0.13,,---,0.23,VWS V14.01,2013-04-05 01:53:00,
2013-04-04 21:58:00,33.3,32.3,30.09,NNE,16,1.0,4.0,96,0.14,,---,0.24,VWS V14.01,2013-04-05 01:58:00,
2013-04-04 22:00:00,33.3,32.3,30.09,NNE,16,0.0,4.0,96,0.14,,---,0.24,VWS V14.01,2013-04-05 02:00:00,
2013-04-04 22:03:00,33.3,32.3,30.09,NNE,16,0.0,1.0,96,0.11,,---,0.25,VWS V14.01,2013-04-05 02:03:00,
2013-04-04 22:08:00,33.4,32.4,30.09,NNE,16,0.0,2.0,96,0.12,,---,0.26,VWS V14.01,2013-04-05 02:08:00,
2013-04-04 22:13:00,33.4,32.4,30.09,NNE,16,0.0,2.0,96,0.12,,---,0.26,VWS V14.01,2013-04-05 02:13:00,
2013-04-04 22:18:00,33.4,32.1,30.08,NNE,16,0.0,2.0,95,0.13,,---,0.27,VWS V14.01,2013-04-05 02:18:00,
2013-04-04 22:23:00,33.4,32.1,30.08,NNE,16,2.0,3.0,95,0.13,,---,0.27,VWS V14.01,2013-04-05 02:23:00,
2013-04-04 22:28:00,33.3,32.0,30.08,NNE,16,2.0,3.0,95,0.14,,---,0.28,VWS V14.01,2013-04-05 02:28:00,
2013-04-04 22:30:00,33.3,32.0,30.08,NNE,16,0.0,3.0,95,0.14,,---,0.28,VWS V14.01,2013-04-05 02:30:00,
2013-04-04 22:33:00,33.4,32.4,30.07,NNE,16,1.0,4.0,96,0.08,,---,0.28,VWS V14.01,2013-04-05 02:33:00,
2013-04-04 22:38:00,33.4,32.4,30.07,NNE,16,2.0,4.0,96,0.08,,---,0.28,VWS V14.01,2013-04-05 02:38:00,
2013-04-04 22:43:00,33.4,32.4,30.06,NNE,16,0.0,4.0,96,0.09,,---,0.29,VWS V14.01,2013-04-05 02:43:00,
2013-04-04 22:48:00,33.5,32.5,30.06,NNE,16,2.0,4.0,96,0.09,,---,0.29,VWS V14.01,2013-04-05 02:48:00,
2013-04-04 22:53:00,33.4,32.4,30.06,NNE,16,2.0,4.0,96,0.10,,---,0.30,VWS V14.01,2013-04-05 02:53:00,
2013-04-04 22:58:00,33.4,32.4,30.06,NNE,16,1.0,4.0,96,0.10,,---,0.30,VWS V14.01,2013-04-05 02:58:00,
2013-04-04 23:00:00,33.4,32.4,30.06,NNE,16,1.0,4.0,96,0.10,,---,0.30,VWS V14.01,2013-04-05 03:00:00,
2013-04-04 23:03:00,33.4,32.4,30.05,NNE,16,1.0,3.0,96,0.06,,---,0.30,VWS V14.01,2013-04-05 03:03:00,
2013-04-04 23:08:00,33.4,32.4,30.05,NNE,16,0.0,4.0,96,0.07,,---,0.31,VWS V14.01,2013-04-05 03:08:00,
2013-04-04 23:13:00,33.4,32.4,30.05,NNE,16,0.0,4.0,96,0.08,,---,0.32,VWS V14.01,2013-04-05 03:13:00,
2013-04-04 23:18:00,33.5,32.5,30.04,NNE,16,3.0,4.0,96,0.08,,---,0.32,VWS V14.01,2013-04-05 03:18:00,
2013-04-04 23:23:00,33.5,32.5,30.03,NNE,16,1.0,4.0,96,0.09,,---,0.33,VWS V14.01,2013-04-05 03:23:00,
2013-04-04 23:28:00,33.5,32.5,30.03,NNE,16,1.0,4.0,96,0.09,,---,0.33,VWS V14.01,2013-04-05 03:28:00,
2013-04-04 23:30:00,33.5,32.5,30.03,NNE,16,0.0,4.0,96,0.09,,---,0.33,VWS V14.01,2013-04-05 03:30:00,
2013-04-04 23:33:00,33.5,32.5,30.03,NNE,16,2.0,4.0,96,0.06,,---,0.34,VWS V14.01,2013-04-05 03:33:00,
2013-04-04 23:38:00,33.5,32.5,30.04,NNE,16,2.0,4.0,96,0.06,,---,0.34,VWS V14.01,2013-04-05 03:38:00,
2013-04-04 23:43:00,33.4,32.4,30.03,NNE,16,0.0,4.0,96,0.06,,---,0.34,VWS V14.01,2013-04-05 03:43:00,
2013-04-04 23:48:00,33.5,32.5,30.03,NNE,16,2.0,4.0,96,0.06,,---,0.34,VWS V14.01,2013-04-05 03:48:00,
2013-04-04 23:53:00,33.5,32.5,30.02,NNE,16,2.0,4.0,96,0.07,,---,0.35,VWS V14.01,2013-04-05 03:53:00,
2013-04-04 23:58:00,33.5,32.5,30.02,NNE,16,3.0,4.0,96,0.09,,---,0.37,VWS V14.01,2013-04-05 03:58:00,